Find Starlink 36310

NORAD ID: 68244 Int'l Des: 2026-054 Owner: SPXS Country: US Constellation: starlink operational
LEOCIRCULAR

当前视图

正在加载3D地球...

About Starlink 36310

Starlink 36310 (NORAD 68244) is a starlink constellation satellite (v2 mini) launched Mar 17, 2026 by SPXS of US. It operates in LEO, CIRCULAR orbit with a mass of 575.00 kg.

关于 Starlink 36310

正在加载描述...

即将过境

Passes for default location (London). Set your location on the main map for personalized predictions.

高度历史

Loading altitude history...

两行轨道根数

1 68244U 26054N 26166.79374538 .00034098 00000-0 61716-3 0 9996
2 68244 53.1579 196.1085 0001305 82.2824 277.8333 15.49368650 14084
Epoch: Jun 15, 2026 • Age: 15 hours

当前状态

高度 420.9 km
速度 7.66 km/s
星下点 -8.29°S, 124.79°E
发射日期 Mar 17, 2026
运行时间 0.2 years
类型 internet

技术详情

分类 Payload
质量 575.00 kg
干质量 530.00 kg
总质量 575.00 kg
长度 0.30 m
直径 4.10 m
跨度 29.00 m
形状 Box + pan
制造商 SPXS
平台类型 Starlink V2MO
阶段状态 In Orbit
所有者/国家 SPXS/US

Most Searched